Wind_Speed
24 25 26 26 26 27 27 28 28 28 27 28 28 24 21 21 21 17 11 10 7 8 5 4 2 1 3 3 6 3 1 2 9 20 11 6 3 4 3 2 2 3 2 3 3 5 5
25 25 27 27 28 27 26 28 28 30 29 27 28 27 21 20 20 19 14 10 9 9 6 5 3 4 4 5 6 8 8 2 6 18 11 7 4 3 3 2 3 2 2 5 6 8 6
26 27 28 29 29 29 29 28 29 30 29 28 27 27 27 19 18 22 16 12 11 11 9 6 4 5 2 10 3 1 6 4 7 11 6 9 6 4 5 1 3 3 5 7 7 7 8
27 27 29 29 30 29 30 32 30 30 28 28 27 26 26 20 16 21 18 15 13 12 11 8 5 5 5 2 9 12 4 5 7 9 8 8 9 3 2 1 2 2 3 3 3 0 6
25 26 28 29 30 30 31 33 30 30 29 29 27 25 25 25 17 18 21 17 14 10 11 10 5 4 6 1 3 7 9 6 8 7 7 10 7 3 2 2 2 3 4 5 5 4 3
24 25 29 28 29 32 32 32 33 31 31 29 27 23 25 24 20 16 25 19 12 9 7 7 3 1 4 2 4 6 10 9 4 6 4 3 3 4 4 5 5 4 4 4 5 1 4
26 29 30 28 28 29 30 33 32 30 30 29 27 22 23 23 25 11 29 17 6 2 4 6 4 2 1 4 7 3 9 7 3 4 5 2 5 9 12 8 7 1 3 6 3 6 10
28 29 29 30 29 31 32 34 31 31 29 28 25 25 28 26 24 23 37 7 11 11 4 12 2 4 2 1 4 2 12 5 4 4 5 3 9 11 1 8 9 12 13 15 10 5 7
28 29 31 32 31 32 32 33 31 31 29 30 27 31 31 29 22 21 28 17 27 17 5 2 7 6 3 3 1 6 8 4 4 6 6 5 2 4 10 6 9 10 11 12 16 7 12
29 31 31 31 31 32 32 33 32 31 31 31 37 39 29 21 13 12 21 25 23 14 4 4 4 5 8 4 4 8 14 5 2 10 7 10 12 3 4 6 8 15 8 13 13 7 7
30 30 31 31 31 31 31 32 34 33 32 35 43 34 19 16 6 6 14 28 27 5 2 3 5 3 5 7 6 1 7 2 7 6 5 4 5 5 12 11 9 7 5 7 8 9 12
30 32 32 32 31 31 30 31 34 34 35 41 34 19 15 10 12 18 38 30 15 5 6 6 5 7 8 7 4 3 5 1 2 4 7 7 4 5 8 7 14 4 3 8 4 7 9
32 32 32 31 31 31 29 31 33 34 35 33 35 14 9 14 7 21 42 9 4 4 2 7 6 7 8 7 6 5 7 9 5 4 6 4 15 7 4 4 2 11 3 3 4 6 7
33 33 32 32 30 29 28 31 33 33 37 32 46 24 11 13 15 31 29 4 4 5 4 6 6 9 5 7 5 7 7 6 11 3 1 4 5 11 10 15 6 16 10 5 5 5 4
33 32 33 32 31 28 28 30 32 35 38 32 32 5 6 9 17 23 9 3 6 5 7 10 11 5 4 4 3 6 7 4 8 12 6 3 4 2 4 4 8 5 10 9 7 11 8
31 33 33 32 31 28 28 32 29 35 38 29 18 1 4 5 11 22 3 5 2 3 13 9 5 4 9 10 6 8 7 4 6 9 7 3 4 4 0 4 8 6 3 4 5 4 8
32 32 32 31 31 27 28 30 30 35 40 23 5 1 1 7 17 4 1 3 5 4 8 4 4 5 5 6 8 7 4 4 4 4 10 5 5 2 5 11 12 7 6 6 2 5 4
32 31 32 30 29 28 28 30 29 35 40 15 4 2 3 24 3 0 2 6 4 4 3 3 3 5 5 6 5 5 6 5 6 7 9 9 4 5 11 9 16 18 16 19 9 12 5
31 30 31 30 28 26 27 29 30 35 34 18 5 2 7 14 4 2 2 4 4 3 2 2 3 3 4 5 4 6 4 4 9 9 10 9 4 4 6 1 7 10 17 22 12 8 11
30 30 30 29 27 25 28 29 29 35 38 20 2 1 4 2 1 5 5 3 4 3 3 3 3 4 3 3 4 3 4 3 10 8 10 12 5 7 10 14 5 8 15 17 18 8 15
30 30 29 29 26 26 27 28 30 34 44 9 2 2 2 2 1 4 4 4 5 3 2 2 2 2 4 4 5 5 6 2 4 10 7 8 6 10 19 24 23 23 24 17 21 24 12
30 30 28 28 25 26 27 28 28 33 35 8 4 2 1 3 5 6 5 4 6 3 4 2 3 6 5 4 6 4 4 5 6 4 7 4 5 5 23 21 19 21 22 21 21 21 22
29 28 28 27 25 25 25 27 28 29 31 4 5 4 3 9 5 6 5 6 8 5 5 1 7 4 7 9 8 11 8 4 3 4 10 5 2 3 17 12 17 8 7 11 14 19 15
29 28 27 27 24 23 23 25 26 26 27 15 7 5 3 3 6 7 9 4 5 8 2 1 4 5 1 3 3 6 7 11 11 12 11 7 3 3 9 9 4 3 7 8 15 13 17
27 27 26 25 23 24 24 25 26 26 27 22 16 3 2 2 4 9 7 7 3 1 4 4 2 3 4 3 3 3 3 2 7 9 12 14 7 4 4 6 7 3 8 2 4 6 18
26 25 24 24 21 23 24 23 25 27 29 30 21 3 3 1 7 5 5 6 4 5 2 3 1 1 2 2 2 2 3 4 3 1 6 5 9 2 3 4 4 4 4 2 4 3 7
25 24 22 22 20 20 22 21 23 25 27 28 12 11 5 2 1 5 8 5 4 4 2 2 1 2 3 3 2 3 4 2 3 1 3 4 3 6 6 3 7 4 6 3 4 5 5
23 23 22 21 21 21 20 21 22 23 25 25 18 9 9 3 2 2 4 4 3 3 3 2 2 1 2 2 2 3 4 4 1 4 4 6 4 3 3 2 6 2 1 1 3 4 2
22 22 21 21 20 20 19 20 21 21 22 23 8 23 23 4 2 2 2 1 3 6 4 3 2 3 3 3 3 2 3 2 3 3 1 3 5 3 7 5 4 3 5 3 2 4 2
Wind_Direction
357 355 355 354 351 344 341 342 340 337 330 330 332 332 294 273 245 238 234 233 240 254 262 277 272 199 148 216 246 253 339 283 202 195 174 141 121 128 175 177 137 214 270 257 282 303 268
354 352 350 350 348 346 342 335 334 333 331 323 329 330 317 279 257 239 230 219 229 236 232 253 227 179 130 221 261 269 253 345 183 177 176 138 159 149 148 170 178 207 243 282 287 267 263
349 348 348 347 345 345 341 336 331 329 325 325 315 321 326 309 267 236 223 209 216 228 222 216 203 171 142 237 191 139 187 98 139 167 144 172 153 144 140 152 222 234 284 279 243 229 242
345 345 346 345 343 342 338 337 332 326 324 323 319 315 320 312 279 234 219 204 200 223 207 190 184 168 240 232 236 244 172 139 118 114 114 169 172 100 137 199 352 233 235 258 264 264 245
345 341 343 341 340 339 337 336 329 325 324 321 317 308 315 314 299 241 218 202 189 208 206 176 155 152 260 222 207 205 179 147 149 129 101 131 133 141 98 153 319 219 249 228 300 207 287
337 339 338 335 336 334 333 330 328 321 325 321 316 306 310 313 308 252 210 183 170 163 159 155 114 268 257 201 146 141 168 154 127 122 89 126 128 154 172 174 222 195 223 232 229 328 354
332 331 332 332 333 331 328 329 326 320 322 326 321 317 313 314 295 282 177 141 119 150 203 192 183 230 122 114 121 112 151 110 90 97 163 157 200 206 202 209 230 210 252 251 261 283 307
330 330 331 333 332 329 329 328 324 320 321 324 319 318 313 307 303 278 170 169 176 153 190 240 185 270 288 29 116 116 159 133 146 163 137 149 233 232 357 240 236 252 259 265 284 261 271
330 330 330 331 329 327 329 329 327 321 319 322 317 314 305 294 297 271 186 175 157 132 100 222 209 208 197 149 178 176 156 138 143 151 187 194 144 188 199 220 225 235 251 267 269 297 275
330 330 331 330 329 325 328 327 325 321 321 318 315 309 294 277 281 257 185 166 145 150 81 215 191 227 177 112 262 182 179 144 161 194 203 255 245 196 169 211 200 251 209 244 259 273 271
329 331 332 331 330 326 327 327 326 323 318 321 309 298 280 244 259 206 168 158 143 92 88 154 155 140 159 177 146 321 172 143 161 176 138 218 181 179 218 225 175 228 192 219 229 238 276
331 332 331 331 331 328 327 327 326 323 323 325 324 309 258 226 211 262 166 160 128 77 238 155 131 178 149 186 158 109 160 230 41 205 226 212 195 174 193 213 203 98 277 258 239 237 246
332 331 335 334 332 330 329 330 329 325 326 329 340 326 215 195 165 230 154 157 105 147 140 154 169 167 167 165 161 146 170 181 181 173 213 221 235 193 180 193 194 188 172 239 233 214 247
335 332 337 335 335 333 331 332 331 327 328 332 336 321 212 220 227 162 147 179 109 158 147 123 127 134 169 139 203 166 156 203 217 158 154 215 308 194 190 217 191 192 185 208 223 216 256
335 336 339 338 338 336 334 335 331 330 330 336 335 278 179 194 199 184 151 109 184 180 144 130 122 140 170 190 182 173 205 217 196 181 200 209 261 1 197 201 195 180 216 237 272 264 271
339 341 340 339 340 337 337 337 333 333 333 340 330 282 242 186 189 144 127 125 139 116 116 133 131 173 177 179 172 181 191 220 213 182 181 181 275 201 237 181 245 212 175 176 199 244 244
338 341 341 342 340 339 340 337 336 337 336 345 315 257 166 170 139 96 171 135 103 95 112 137 113 140 153 165 173 180 203 268 208 179 161 149 209 244 138 203 203 193 218 217 240 229 246
339 342 344 345 345 343 340 340 339 339 341 348 296 326 198 142 77 156 165 127 112 107 52 103 100 108 138 144 151 168 225 233 182 147 170 191 213 242 231 211 207 213 224 219 229 226 224
343 345 346 347 346 345 343 345 342 339 344 336 314 305 156 150 141 153 237 76 85 111 129 99 93 90 118 151 156 199 200 224 169 167 167 167 212 299 298 27 221 225 227 226 238 258 226
344 346 347 346 347 345 349 347 344 342 339 334 250 318 8 29 288 126 135 104 102 55 100 91 104 105 88 151 216 161 228 264 189 200 184 173 202 201 251 262 221 241 233 222 222 236 247
345 344 347 346 347 346 352 349 347 348 344 346 260 59 141 150 237 145 91 111 102 132 67 141 115 196 171 186 199 219 220 250 182 205 187 181 257 238 253 265 271 263 259 226 217 228 226
346 346 347 348 349 348 352 349 353 354 347 16 5 12 192 126 158 122 101 195 177 132 138 181 202 168 196 224 213 180 199 193 208 152 169 207 266 271 276 273 263 261 264 247 226 226 236
345 346 348 349 349 348 352 350 352 354 357 354 328 309 266 161 169 152 181 170 187 149 230 273 210 174 232 245 249 243 244 239 245 170 190 206 242 276 285 319 301 263 262 229 222 217 218
348 346 345 348 348 349 351 351 350 353 354 349 323 271 269 162 169 185 165 147 142 182 113 150 161 178 185 183 288 258 243 243 242 236 213 232 206 243 287 305 299 284 329 241 220 224 221
347 345 345 346 348 345 351 351 348 349 350 350 333 272 282 133 196 187 158 182 153 342 222 208 197 210 194 218 297 311 297 267 248 221 211 213 224 282 282 310 279 333 336 21 176 267 220
345 347 344 343 346 344 345 352 348 347 351 348 335 265 274 146 208 185 161 166 162 186 184 244 17 271 175 233 254 252 240 247 305 340 26 156 212 203 324 301 312 260 329 325 145 337 329
345 348 346 343 343 344 344 348 349 346 349 345 310 336 290 265 263 156 184 171 127 124 149 123 159 174 160 199 246 218 239 257 276 242 186 162 176 221 241 287 286 283 307 311 18 314 344
345 348 351 350 346 344 343 344 347 345 346 347 317 347 342 303 306 45 134 131 121 155 156 132 125 247 154 215 231 220 219 228 227 234 195 185 167 206 174 242 291 131 11 61 261 308 309
345 344 345 341 342 337 340 343 340 341 342 346 321 325 326 245 282 322 292 268 204 171 132 153 272 160 187 224 223 261 243 151 193 269 143 241 192 188 183 219 257 235 224 254 261 265 332
Height
819 815 811 806 802 798 795 791 788 785 782 777 772 768 767 766 767 769 769 770 769 774 773 774 773 773 775 776 772 770 769 770 770 773 777 780 784 786 790 792 792 793 790 787 785 785 784
817 813 810 806 802 797 793 789 786 782 778 774 769 765 762 761 762 764 765 765 767 772 772 773 773 773 775 782 768 768 769 768 769 771 775 777 780 785 790 792 792 790 790 789 786 784 782
817 813 808 805 800 796 792 788 784 780 775 771 766 763 758 756 756 759 760 761 765 769 770 772 772 772 774 769 766 767 767 768 769 771 774 778 780 784 788 793 791 790 792 787 783 781 780
818 813 807 802 798 793 789 784 780 776 771 767 763 759 755 752 752 753 756 758 762 767 769 770 771 772 770 763 764 766 767 768 770 772 774 777 781 784 787 789 789 790 789 789 780 777 776
814 810 806 800 795 791 786 781 777 772 768 763 759 755 752 747 747 748 752 756 759 764 767 768 770 772 768 761 762 762 766 768 771 774 776 778 781 786 789 792 796 792 793 792 782 774 774
812 808 802 798 793 788 783 778 773 768 763 759 754 751 749 746 742 744 747 753 758 762 766 768 770 774 763 760 759 762 765 768 771 775 779 781 784 787 788 789 793 792 792 788 784 778 778
810 806 800 794 790 784 779 773 768 763 759 754 750 747 744 741 738 738 739 749 760 766 763 760 761 761 757 758 759 763 764 768 772 776 783 783 785 784 781 785 785 787 789 789 786 780 781
806 802 796 790 785 779 774 769 763 759 754 750 746 743 739 735 733 729 728 732 735 739 759 755 759 760 759 758 760 764 765 770 773 779 783 786 783 777 782 778 783 784 785 781 779 781 781
802 796 791 786 781 775 770 764 759 754 749 744 741 738 735 730 729 727 722 723 730 733 751 754 754 756 758 759 759 761 764 769 773 780 782 781 776 775 781 785 784 784 787 786 784 783 778
800 793 788 782 777 771 765 760 755 749 744 738 733 729 726 726 728 719 721 723 726 733 773 754 755 752 755 756 759 756 760 764 772 772 772 774 772 777 784 784 786 786 783 782 784 788 782
795 790 784 778 772 767 761 756 750 743 737 732 725 717 717 720 716 715 718 722 723 732 776 751 752 750 750 755 755 758 758 761 768 770 776 771 774 778 778 775 783 779 776 779 780 784 782
792 785 780 774 768 763 757 752 745 738 733 723 714 708 710 713 712 714 715 720 722 750 769 745 746 746 749 752 751 757 758 760 762 764 765 770 770 769 771 770 772 773 779 778 778 777 765
791 784 777 770 765 759 754 748 742 734 728 717 711 706 705 708 706 709 709 718 734 750 732 741 741 741 741 748 749 754 756 761 760 769 767 763 759 762 765 770 772 771 779 771 773 764 748
788 781 774 768 762 756 751 745 738 731 723 714 708 701 701 703 700 706 709 726 728 721 729 728 734 739 743 743 746 749 755 755 757 761 766 767 768 758 759 758 761 766 767 761 756 756 743
784 778 772 765 759 753 747 742 735 728 720 710 703 699 698 699 701 706 715 715 718 716 714 723 735 741 746 746 749 746 751 750 747 756 758 764 760 760 759 760 758 764 764 754 755 744 750
782 775 769 763 757 750 745 740 733 726 717 707 702 699 697 695 696 705 712 710 713 709 710 718 727 734 739 742 751 748 751 747 745 744 747 764 766 760 759 761 757 758 755 760 759 754 735
779 773 766 761 755 749 744 737 731 724 715 705 698 697 697 697 698 715 707 713 712 710 709 716 723 731 732 738 744 743 753 747 745 748 747 759 761 764 761 751 743 753 754 752 749 740 730
777 771 765 759 753 747 743 736 730 723 713 706 701 697 696 700 711 718 713 705 705 713 712 715 717 722 730 737 740 742 751 748 743 747 753 749 757 757 750 729 730 729 726 730 734 722 724
775 769 763 757 752 747 742 736 729 722 716 709 704 697 696 697 707 711 708 707 708 714 715 716 720 719 723 735 743 745 746 737 740 742 746 746 752 756 738 733 729 733 721 720 726 724 717
773 768 762 756 750 746 742 735 729 722 713 707 705 700 704 705 706 707 706 711 716 713 715 714 717 720 725 728 732 739 743 732 737 737 736 737 744 747 721 706 721 721 719 719 723 716 700
772 766 761 755 750 745 742 736 728 722 711 704 700 701 705 707 706 700 701 705 715 718 717 717 721 722 721 729 728 732 738 733 736 734 735 739 734 734 721 710 709 712 705 705 706 700 705
771 765 760 755 749 744 740 736 732 723 714 708 706 703 706 707 704 700 704 713 716 717 716 721 721 717 725 724 725 727 728 731 726 732 734 733 729 725 704 702 702 695 690 690 692 691 690
769 764 758 754 750 745 741 736 732 727 720 716 714 711 706 703 706 708 711 715 714 713 717 713 714 717 721 718 718 719 720 721 721 720 726 728 730 721 692 686 686 676 670 673 674 681 683
767 762 757 753 749 746 743 739 734 730 726 722 718 715 706 702 702 703 706 707 709 713 712 714 716 718 716 715 716 715 714 714 717 718 718 716 724 722 702 690 668 667 664 661 668 668 671
766 761 756 752 748 743 741 736 732 729 726 721 715 713 702 700 700 702 703 705 709 710 713 713 713 714 713 715 715 712 714 712 706 709 713 712 713 708 696 685 673 664 666 663 670 664 659
764 760 756 751 747 743 738 737 732 727 722 717 711 709 706 699 702 697 702 706 711 713 715 714 714 714 713 715 715 708 713 708 703 703 713 709 708 711 705 691 677 665 664 663 661 654 650
763 759 755 751 746 743 738 734 732 726 723 719 712 710 707 698 693 696 697 701 703 709 711 713 714 713 715 712 711 710 711 704 705 701 705 705 707 705 701 692 682 668 668 665 661 662 660
761 757 754 751 746 743 739 734 730 726 723 720 714 711 711 700 695 693 694 701 705 706 708 715 715 715 714 713 711 708 711 710 706 703 698 697 700 698 691 694 694 670 670 668 664 662 662
759 756 752 749 747 742 739 736 732 728 725 721 715 710 707 705 699 696 695 695 695 695 703 711 710 708 709 709 708 701 704 707 709 698 697 695 688 689 692 684 668 666 667 666 668 666 665